Regional Weather Roundup
Issued by NWS Sterling, VA

Home | Current Version | Previous Version | Graphics & Text | Print | Product List | Glossary On
Versions: 1 2 3 4 5 6 7 8 9 10 11 12 13 14 15 16 17 18 19 20 21 22 23 24 25 26 27 28 29 30 31 32 33 34 35 36 37 38 39 40 41 42 43 44 45 46 47 48 49 50
000
ASUS41 KLWX 311010
RWRLWX

REGIONAL WEATHER ROUNDUP
NATIONAL WEATHER SERVICE BALTIMORE MD/WASHINGTON DC
600 AM EDT MON AUG 31 2015

Note: "FAIR" indicates few or no clouds below 12,000 feet
with no significant weather and/or obstructions to visibility.
 TC=TEMPERATURE CELSIUS

 * =Non NWS site. Station does not report precipitation (e.g. rain,
    snow, etc.), thunder, or fog.

DCZ001-MDZ009-015-VAZ040>042-051-053>054-311100-
WASHINGTON METRO

CITY           SKY/WX    TMP DP  RH WIND       PRES   REMARKS
WASHINGTON NAT CLOUDY    75  68  78 S6        30.07S
DULLES         CLOUDY    73  66  78 CALM      30.07S
ANDREWS AFB    CLOUDY    74  66  75 SW7       30.06S
FT BELVOIR     CLOUDY    70  67  92 E1        30.06F
QUANTICO       CLOUDY    73  64  73 VRB5      30.08S
COLLEGE PARK*  CLOUDY    77  66  69 CALM      30.06S
LEESBURG*      CLOUDY    73  72  94 CALM      30.08S
MANASSAS*      CLOUDY    70  68  94 SE3       30.07S
GAITHERSBURG*  CLOUDY    72  64  78 CALM      30.11S

$$

MDZ006>007-011-014-311100-
BALTIMORE METRO

CITY           SKY/WX    TMP DP  RH WIND       PRES   REMARKS
BWI AIRPORT    CLOUDY    75  66  73 W3        30.05S
MD SCIENCE CTR   N/A     77  66  68 MISG      30.05S
MARTIN STATE   CLEAR     75  70  83 CALM      30.06S
ANNAPOLIS      CLOUDY    75  64  68 W3        30.05S
FORT MEADE*    CLOUDY    68  64  88 S3        30.08S

$$

MDZ012-015-019>023-311100-
MARYLAND EASTERN SHORE

CITY           SKY/WX    TMP DP  RH WIND       PRES   REMARKS
OCEAN CITY     CLOUDY    76  68  76 SW7       30.08S
SALISBURY      CLOUDY    71  69  93 S3        30.08S
BAY BRIDGE AP*   N/A     77  64  65 SW3       30.06R
CAMBRIDGE*     CLOUDY    73  68  83 CALM      30.07S
EASTON*        CLEAR     75  68  78 SW7       30.10

$$

MDZ017>025-311100-
SOUTHERN MARYLAND

CITY           SKY/WX    TMP DP  RH WIND       PRES   REMARKS
PATUXENT RIVER CLOUDY    75  66  73 W7        30.07S
ST INIGOES     LGT RAIN  76  69  79 SW5       30.08R
LEONARDTOWN*   CLOUDY    72  64  78 CALM      30.09S

$$

MDZ003>005-311100-
NORTH CENTRAL MARYLAND

CITY           SKY/WX    TMP DP  RH WIND       PRES   REMARKS
FREDERICK*     CLOUDY    72  70  94 S6        30.08S
HAGERSTOWN APT CLOUDY    73  65  75 S3        30.08S
WESTMINSTER*   NOT AVBL

$$

MDZ501>502-311100-
WESTERN MARYLAND

CITY           SKY/WX    TMP DP  RH WIND       PRES   REMARKS
OAKLAND*       CLOUDY    63  61  94 SW5       30.19S
CUMBERLAND*    CLOUDY    70  66  88 CALM      30.13S

$$

VAZ025>031-311100-
SHENANDOAH VALLEY

CITY           SKY/WX    TMP DP  RH WIND       PRES   REMARKS
WINCHESTER*    CLOUDY    72  63  73 CALM      30.08S
FRONT ROYAL*   FAIR      70  64  83 CALM      30.08R
LURAY*         CLOUDY    68  64  88 CALM      30.10R
NEW MARKET*    CLOUDY    68  65  92 CALM      30.10R
STAUNTON*      CLOUDY    71  65  82 CALM      30.13S
WAYNESBORO*    CLOUDY    70  59  68 CALM      30.13S

$$

WVZ021-048>050-054>055-311100-
EASTERN WEST VIRGINIA PANHANDLE

CITY           SKY/WX    TMP DP  RH WIND       PRES   REMARKS
MARTINSBURG    CLOUDY    69  64  84 CALM      30.08S
PETERSBURG*    FOG       67  67  99 CALM      30.12R VSB 3/4

$$

VAZ036>039-050-311100-
CENTRAL FOOTHILLS

CITY           SKY/WX    TMP DP  RH WIND       PRES   REMARKS
CHARLOTTESVILL CLOUDY    70  65  84 S5        30.09S
CULPEPER*      CLOUDY    69  67  93 S3        30.08S
ORANGE*        LGT RAIN  70  68  94 CALM      30.10S
GORDONSVILLE*  PTSUNNY   69  67  94 CALM      30.08S
WARRENTON*     FAIR      71  69  93 CALM      30.07S

$$

VAZ055>057-311100-
NORTH AND CENTRAL PIEDMONT

CITY           SKY/WX    TMP DP  RH WIND       PRES   REMARKS
FREDERICKSBRG* CLOUDY    75  66  75 CALM      30.07S
STAFFORD*      CLOUDY    70  64  83 S5        30.12R

$$

NCZ024-NYZ072-PAZ021-071-VAZ022-071-311100-
OTHER REGIONAL OBSERVATIONS

CITY           SKY/WX    TMP DP  RH WIND       PRES   REMARKS
NEW YORK CITY  MOCLDY    76  67  73 VRB5      30.04S
PHILADELPHIA   CLOUDY    76  67  73 S7        30.05S
PITTSBURGH     CLOUDY    68  64  87 CALM      30.09S
ROANOKE        CLOUDY    68  66  93 S3        30.14S
RICHMOND       CLOUDY    74  66  76 CALM      30.09S
RALEIGH        RAIN      69  67  93 CALM      30.11F FOG

$$

ANZ530>537-311100-
MARINE OBSERVATIONS

STATION/POSITION TIME  TEMP    WIND        PRES
                       AIR SEA DIR/SP/G
                 (UTC) (F)     (DEG/KT/KT) (MB)
THOMAS PT LIGHT  NOT AVBL

$$




USA.gov is the U.S. government's official web portal to all federal, state and local government web resources and services.